NOAA 16 DEB

Satellite information

Favourite Embed

Satellite Type and Status

DEBRISIN ORBIT

Key statistics

Satellite NOAA 16 DEB at a glance.

Uptime

9115

Days in orbit

Revolutions

≈ 14.4

Per day

Orbit

SSO

Sun Synchronous Orbit

Inclination

98.9

Latest

Satellite identification and parameters

Extended collection of information and parameters for NOAA 16 DEB.

Object identification

Identified? True

Debris? True

Object name: NOAA 16 DEB

International designator: 2000-055LG

Object number (NORAD): 41427

Object ID (CCSDS): 41427

Country: UNITED STATES OF AMERICA (US)

Current information (Y/N): Y

RCS size: SMALL

Orbital parameters

Period: 100.175 minutes

Inclination: 98.9222 deg

SMA: 7144.978 km

Apoapsis: 785.317 km

Periapsis: 748.369 km

RAAN: 352.6793 deg

Eccentricy: 0.00258565

Argument of periapsis: 270.7704 deg

Mean anomaly: 89.0519 deg

Mean motion: 14.37478695 rev/day

Mean motion (dot): 0.00028706 rev/day2

B* drag term: 0.0095299248 1/REarth

Two-line elements (TLE)

Creation date: Sept. 3, 2025, 10:15 a.m.

Reference frame: TEME

Reference center: EARTH

Epoch: Sept. 3, 2025, 6:27 a.m. UTC

TLE line 0: 0 NOAA 16 DEB

TLE line 1: 1 41427U 00055LG 25246.26919405 .00028706 00000-0 95299-2 0 9992

TLE line 2: 2 41427 98.9222 352.6793 0025856 270.7704 89.0519 14.37478695490403

Live tracking on map

Real-time ground track for satellite NOAA 16 DEB.

In-orbit conjunctions

A list of the most updated potential collisions computed for object NOAA 16 DEB.

Target Orbit TCA Probability of collision Miss distance Type
CZ-6A DEB LEO 2025-03-05 17:36:43 0.000216059 210.0 (m) DEBRIS
COSMOS 494 LEO 2025-01-16 08:35:50 0.0002042695 335.0 (m) PAYLOAD
SL-8 DEB LEO 2024-11-15 11:51:20 0.0002118994 768.0 (m) DEBRIS
DELTA 1 DEB SSO 2024-09-25 21:35:48 0.0002089887 368.0 (m) DEBRIS

Associated space launch

The NOAA K, L and M POES satellites begin the fifth generation of improved environmental monitoring in support of NOAA missions. The instrument payload has significant improvements and additions/deletions. The instrument changes have effected the spacecraft subsystems and data formats.

NOAA 16 DEB was lifted into orbit during the mission ‘Titan II SLV | NOAA 16’, on board a Titan II SLV space rocket.

The launch took place on Sept. 21, 2000, 10:22 a.m. from Space Launch Complex 4W.

For more information about the launch, click the button.

Launch to space Titan II SLV | NOAA 16
Titan II SLV | NOAA 16

Agency: N/A

Status: Launch Successful

Launch date: Sept. 21, 2000, 10:22 a.m. UTC

Rocket: Titan II SLV

Launch pad: Space Launch Complex 4W

Location: Vandenberg SFB, CA, USA

...

Latest news about this satellite

There are no fresh news available about this satellite. Check back as we update our databases every day.


Newsletter sign-up

Weekly statistics, charts and insights to help you stay on top of the space industry.